Location: Pcim
(49.7500°N, 19.9670°E)
Time: 09:41:43
(UTC+02:00)

EO-79 - Pass Details

Date: 02 May 2024
Orbit: 563 x 574 km, 98.0° (Epoch: 20 May)

Event Time Altitude Azimuth Distance (km) Brightness Sun altitude
Rises 03:20:59 0° 21° (NNE) 2,803 ? -15.5°
Reaches altitude 10° 03:23:17 10° 30° (NNE) 1,900 ? -15.2°
Maximum altitude 03:27:06 36° 97° (E) 928 ? -14.8°
Drops below altitude 10° 03:30:53 10° 165° (SSE) 1,885 ? -14.4°
Enters shadow 03:31:19 - 168° (SSE) 2,054 ? -14.3°
